Regional Weather Roundup
Issued by NWS

Home | Current Version | Previous Version | Graphics & Text | Print | Product List | Glossary On
Versions: 1 2 3 4 5 6 7 8 9 10 11 12 13 14 15 16 17 18 19 20 21 22 23 24 25 26 27 28 29 30 31 32 33 34 35 36 37 38 39 40 41 42 43 44 45 46 47 48 49 50
000
ASUS43 KMKX 310121
RWRWI

WISCONSIN REGIONAL WEATHER ROUNDUP
NATIONAL WEATHER SERVICE MILWAUKEE/SULLIVAN WI
800 PM CDT THU OCT 30 2014

NOTE: "FAIR" INDICATES FEW OR NO CLOUDS BELOW 12,000 FEET WITH NO
SIGNIFICANT WEATHER AND/OR OBSTRUCTIONS TO VISIBILITY.

WIZ001-002-006>008-014>016-023>028-310200-
NORTHWEST WISCONSIN

CITY           SKY/WX    TMP DP  RH WIND       PRES   REMARKS
SUPERIOR ARPT  MOCLDY    32  23  68 N21G30    30.26R WCI  20
ASHLAND        CLOUDY    36  30  79 NW17G26   30.15R WCI  26
HAYWARD        LGT SNOW  33  29  85 N10G26    30.17R FOG     WCI  25
SIREN          CLOUDY    35  30  82 N16G24    30.22R WCI  25
CUMBERLAND     CLOUDY    37  30  75 NW14G20   30.16R WCI  29
RICE LAKE      CLOUDY    39  32  75 NW10G17   30.18R WCI  32
CHETEK         CLOUDY    39  33  78 W9G20     30.15R WCI  33
LADYSMITH      RAIN      38  34  85 NW13G25   30.13R WCI  30
EAU CLAIRE     CLOUDY    43  31  62 NW12      30.14R
MENOMONIE      CLOUDY    43  32  65 NW12      30.16R
NEW RICHMOND   CLOUDY    40  29  64 NW16G22   30.21R WCI  31
OSCEOLA        CLOUDY    40  28  63 NW13      30.24R WCI  32
$$

WIZ003>005-009-010-017-018-310200-
NORTH CENTRAL WISCONSIN

CITY           SKY/WX    TMP DP  RH WIND       PRES   REMARKS
MANITOWISH WTR LGT SNOW  33  33 100 NW8       30.05R WCI  26
ARBOR VITAE    LGT RAIN  39  34  80 NW8       30.03S WCI  34
WOODRUFF       LGT RAIN  39  34  80 NW8       30.03S WCI  34
RHINELANDER    PTCLDY    36  29  75 W8        30.04S WCI  30
EAGLE RIVER    LGT RAIN  36  31  81 W9        30.01F WCI  29
LAND O LAKES   LGT SNOW  35  33  94 NW9       30.03R WCI  27
PHILLIPS       CLOUDY    37  32  81 NW7G17    30.07R WCI  32
TOMAHAWK       CLOUDY    38  31  75 CALM      30.06S
MEDFORD        CLOUDY    39  32  75 NW7       30.07S WCI  34
MERRILL        CLOUDY    40  32  71 NW8G16    30.05S WCI  35
$$

WIZ029-030-035-036-043>047-310200-
CENTRAL WISCONSIN

CITY           SKY/WX    TMP DP  RH WIND       PRES   REMARKS
WAUSAU         CLOUDY    41  33  73 NW12      30.04S
MOSINEE        CLOUDY    39  36  87 NW13      30.06S WCI  32
MARSHFIELD     CLOUDY    42  33  70 NW13      30.07R
STEVENS POINT  CLOUDY    41  32  71 NW7       30.06S
WAUPACA        CLOUDY    47  35  61 NW10G17   30.04S
WAUTOMA        CLOUDY    47  35  63 NW9       30.05S
WISC RAPIDS    CLOUDY    45  34  65 N13       30.08R
CAMP DOUGLAS   CLOUDY    45  43  93 NW7       30.07S
$$

WIZ011>013-019>022-031-037>040-048>050-310200-
NORTHEAST WISCONSIN

CITY           SKY/WX    TMP DP  RH WIND       PRES   REMARKS
ANTIGO         CLOUDY    39  32  76 NW10      30.03S WCI  32
SHAWANO        CLOUDY    46  34  63 NW5       30.03S
OCONTO         CLOUDY    44  33  65 NW6       30.01S
STURGEON BAY   CLOUDY    45  34  65 NW8       30.00S
GREEN BAY      CLOUDY    46  35  65 NW9       30.02S
MANITOWOC      CLOUDY    46  38  73 CALM      30.01F
APPLETON       MOCLDY    45  34  65 NW10      30.02S
CLINTONVILLE   CLOUDY    45  32  61 NW8       30.03S
OSHKOSH        CLOUDY    47  36  65 W8        30.02S
$$

WIZ032>034-041-042-053>061-310200-
SOUTHWEST WISCONSIN

CITY           SKY/WX    TMP DP  RH WIND       PRES   REMARKS
LA CROSSE      CLOUDY    47  39  74 NW8       30.11R
SPARTA         CLOUDY    44  37  75 W5        30.10R
VIROQUA        CLOUDY    42  37  83 NW5       30.08S
BOSCOBEL       CLOUDY    48  37  65 CALM      30.10R
PRAIRIE DU CHI CLOUDY    46  38  73 CALM      30.10S
PLATTEVILLE    CLOUDY    46  39  76 NW6       30.09S
$$

WIZ056-057-062-063-064-067-068-310200-
SOUTH CENTRAL WISCONSIN

CITY           SKY/WX    TMP DP  RH WIND       PRES   REMARKS
REEDSBURG      CLOUDY    45  37  73 W6        30.06S
BARABOO/DELLS  CLOUDY    45  35  69 W5        30.06S
LONE ROCK      CLOUDY    50  37  61 W6        30.08S
MINERAL POINT  CLOUDY    46  37  71 W5        30.08R
MADISON        CLOUDY    47  36  65 VRB3      30.06S
MIDDLETON      CLOUDY    46  37  70 W3        30.06F
WATERTOWN      CLOUDY    45  36  71 W5        30.04S
MONROE         CLOUDY    45  36  70 W7        30.06S
JANESVILLE     CLOUDY    45  36  70 CALM      30.05F
$$

WIZ051-052-058>065-066-070>072-310200-
SOUTHEAST WISCONSIN

CITY           SKY/WX    TMP DP  RH WIND       PRES   REMARKS
MILWAUKEE      CLOUDY    49  34  56 W6        30.04F
WAUKESHA       CLOUDY    45  34  65 SW8       30.05S
MILWAUKEE/TIMM CLOUDY    46  34  61 CALM      30.04F
RACINE         CLOUDY    47  35  63 W3        30.06S
BURLINGTON     MOCLDY    42  35  74 W3        30.05S
KENOSHA        CLOUDY    44  36  73 W3        30.05S
FOND DU LAC    CLOUDY    46  35  65 W5        30.02F
SHEBOYGAN      CLOUDY    44  36  73 SW6       30.01F
WEST BEND      CLOUDY    45  34  65 SW6       30.02F
JUNEAU         CLOUDY    43  36  76 SW6       30.05S
$$

LSZ147-162-310200-
LAKE SUPERIOR

STATION/POSITION TIME  TEMP    WIND        PRES    WAVE
                       AIR SEA DIR/SP/G            HT/PER
                 (UTC) (F)     (DEG/KT/KT) (MB)    (FT/S)
W MID LAKE BUOY  0050   39 45  350/ 23/ 27 1019.0R   4/ 5
DEVILS ISLAND    0100   37     340/ 36/ 41 1021.4R
PORT WING        0100   38     330/ 28     1022.7R
SAXON HARBOR     0111   41     320/ 21/ 27 1019.6R
$$

LMZ867-665-643>646-310200-
LAKE MICHIGAN

STATION/POSITION TIME  TEMP    WIND        PRES    WAVE
                       AIR SEA DIR/SP/G            HT/PER
                 (UTC) (F)     (DEG/KT/KT) (MB)    (FT/S)
CHAMBERS ISLAND  0000   46     310/  9/ 13 1015.9F
N MID LAKE BUOY  0050   46 51  300/ 14/ 16 1015.5F   2/ 4
NORTHPORT PIER   0000   46     300/  8/ 12 1015.6
KEWAUNEE LAKESHO 0000   45     250/  3/  4 1015.3F
SHEBOYGAN LAKESH 0100   48 50  230/  7/  8 1017.0F
PORT WASHINGTON  0000   48     240/  2/  4 1017.6S
ATWATER BUOY     0100   50     240/  8/ 10 1018.1F
MILWAUKEE LAKESH 0100   49     270/  5/  7   N/A
S MID LAKE BUOY  0050   51 53  280/ 12/ 12 1017.5F   1/ 4
KENOSHA   LAKESH 0100   49     280/  4/  7 1017.3F
$$

TC  - TEMPERATURE IN CELSIUS
VSB - VISIBILITY IN STATUTE MILES
WCI - WIND CHILL INDEX
HX  - HEAT INDEX




USA.gov is the U.S. government's official web portal to all federal, state and local government web resources and services.